Theta_e
320 319 319 319 320 320 320 320 320 320 319 318 318 316 313 312 310 309 307 306 306 306 307 307 308 309 309 309 307 305 305 305 305 305 305 306 306 308 310 312 314 316 317 317 319 324 325 324 326 328 329 330 330 330 331 331 329 326 323 322 322 324 326 326 328 331 330 329 330 330 330 330 329 329 328 326 325 324 324 323 323 322 320 320 323
319 320 319 320 320 320 319 320 320 320 319 318 318 316 313 312 310 309 308 307 308 308 308 309 310 310 309 309 308 305 305 306 306 306 306 305 305 305 305 308 310 312 315 314 313 317 319 319 322 326 328 329 330 331 331 331 330 328 325 325 325 326 327 327 328 330 330 329 330 330 330 330 331 330 328 327 327 326 325 324 324 324 323 321 321
319 320 320 319 319 319 319 319 320 320 320 318 318 317 314 312 310 309 309 309 309 310 310 311 311 309 308 309 308 307 307 307 308 307 307 306 305 304 304 304 305 307 309 309 308 311 314 314 315 318 321 323 326 326 326 327 329 329 328 328 328 328 328 328 328 330 331 331 331 330 330 330 331 331 329 328 327 326 326 325 324 324 324 324 322
319 320 319 319 319 319 319 319 319 319 319 318 319 318 315 312 311 309 309 310 310 311 311 312 311 309 309 309 309 309 308 308 308 307 307 307 305 305 304 304 305 304 304 305 305 307 309 309 309 311 313 316 319 320 321 323 325 325 325 325 327 327 327 327 328 329 330 331 331 331 331 331 331 331 330 329 328 326 326 326 325 324 324 324 324
319 320 319 319 319 319 319 319 319 319 319 319 319 319 316 313 311 310 310 310 311 312 312 312 311 310 310 310 309 309 309 308 308 308 307 307 307 306 306 305 306 305 304 305 305 306 306 306 306 306 307 310 313 316 318 320 321 323 322 322 322 323 324 325 326 327 328 330 331 331 331 331 331 330 330 329 329 327 327 326 325 326 325 325 326
320 320 320 320 319 319 319 319 319 320 319 319 319 319 317 313 312 310 310 311 311 312 313 312 312 310 309 309 309 309 309 309 309 309 308 308 308 307 307 306 306 306 306 306 307 306 307 306 306 306 306 306 307 309 311 313 315 318 320 321 322 323 325 326 326 327 328 330 331 331 330 330 330 330 329 329 328 328 327 327 326 326 326 326 326
319 320 319 320 320 319 320 319 320 320 319 319 319 319 317 314 312 310 311 311 311 312 313 313 312 310 309 308 309 309 309 309 309 309 308 308 308 308 307 307 307 306 306 306 306 306 306 306 306 307 307 307 307 308 309 309 310 311 313 315 318 320 322 324 325 325 327 328 330 329 330 330 330 330 330 329 329 329 329 328 328 328 327 327 327
319 320 320 320 320 320 320 320 320 320 320 319 319 319 318 315 312 311 311 311 311 311 313 313 312 310 309 309 310 310 310 310 310 310 309 308 308 308 308 308 308 307 306 305 305 304 303 303 304 305 305 305 306 306 307 307 308 309 310 311 312 314 316 318 320 322 323 324 326 327 327 329 330 330 330 329 329 329 329 329 328 328 328 328 328
318 320 320 320 320 320 321 321 321 320 319 319 319 319 318 316 312 311 311 311 310 310 311 313 312 311 310 309 309 310 310 310 310 310 310 309 308 308 308 308 308 308 307 306 305 304 303 303 303 303 303 304 304 304 305 305 306 308 309 310 311 312 312 313 314 316 318 320 322 323 324 326 327 328 328 328 328 329 329 328 328 327 327 327 328
317 318 319 319 320 320 321 321 320 320 319 320 320 319 318 317 313 312 311 311 311 310 311 312 312 312 310 309 310 310 310 310 310 310 311 310 309 308 308 308 308 308 307 307 306 305 305 305 305 304 304 304 304 304 304 304 304 305 306 307 309 311 312 313 313 313 313 315 317 319 321 322 323 323 323 323 325 326 327 327 327 327 326 326 327
316 318 319 319 320 321 321 321 320 320 320 320 320 319 319 317 315 313 313 312 311 311 310 311 312 311 310 309 309 310 310 310 310 310 311 311 310 309 308 308 308 308 308 307 306 306 306 306 306 306 305 305 305 305 304 304 304 304 304 305 306 307 308 311 313 314 313 313 313 315 317 320 321 322 322 322 322 323 324 325 325 325 325 325 326
315 317 318 319 320 321 321 321 321 320 320 320 320 319 319 318 317 315 314 314 313 312 311 311 311 311 311 310 310 310 310 310 310 311 311 311 311 310 309 308 308 308 308 307 307 306 306 306 306 306 306 305 305 305 305 304 304 304 303 303 304 304 305 305 307 309 310 311 312 312 314 317 321 322 322 323 323 323 323 324 323 323 324 324 324
315 316 317 319 319 320 320 320 321 320 320 320 320 320 319 319 319 317 316 316 316 314 312 312 312 312 311 311 310 311 311 310 310 311 311 311 311 310 309 309 308 308 308 307 307 306 306 306 306 306 305 305 305 305 305 304 304 304 304 303 303 302 303 303 303 304 304 307 309 311 311 313 317 319 321 322 322 323 323 323 323 324 325 325 325
315 316 317 318 318 319 319 320 320 320 320 320 320 320 320 320 319 318 318 317 317 316 314 313 313 313 312 311 311 311 311 311 310 311 312 312 312 311 310 309 309 308 307 307 307 306 306 306 306 305 305 305 305 305 305 305 305 305 305 304 303 302 302 302 302 302 302 303 304 306 308 310 312 315 317 318 319 320 321 322 323 323 324 325 325
313 315 317 317 318 318 319 319 320 320 320 320 320 320 320 319 320 320 319 318 318 318 316 315 315 315 314 313 313 312 312 312 311 311 312 312 312 312 310 310 309 308 308 307 307 307 306 306 305 305 305 305 305 305 305 305 305 305 305 305 304 303 302 301 301 301 301 301 301 302 304 307 309 312 313 314 316 317 319 320 321 322 323 323 323
313 314 315 316 318 319 319 319 318 319 319 320 320 320 320 320 320 320 320 319 319 318 317 316 316 316 315 313 313 313 313 313 312 311 312 312 312 312 311 310 309 309 308 307 307 306 306 306 306 305 305 304 305 305 305 305 305 305 304 304 304 304 303 302 301 301 301 300 300 300 300 303 305 308 310 311 313 314 316 317 319 320 322 322 322
313 314 314 315 317 317 319 320 319 319 319 319 320 319 320 320 320 320 320 319 320 319 319 317 317 317 316 315 314 314 314 313 312 311 312 311 312 312 311 310 310 309 308 308 307 306 306 306 306 305 304 304 304 305 305 305 305 305 304 304 304 304 303 303 302 302 301 301 301 300 300 300 302 304 306 309 310 312 313 314 316 317 319 321 322
310 312 312 314 316 316 318 319 320 321 321 320 320 319 319 319 319 320 320 320 320 320 319 318 317 317 317 316 315 315 314 313 312 311 312 312 312 312 311 310 310 309 309 308 307 306 306 306 306 305 304 304 304 304 304 304 304 304 304 303 303 303 303 303 302 302 302 302 302 302 301 301 301 302 303 305 307 310 312 313 314 315 316 318 320
308 308 308 311 312 314 317 318 319 320 320 321 321 321 321 320 320 320 319 320 319 320 320 319 318 318 317 317 315 315 315 314 314 312 312 311 311 311 311 311 310 309 309 308 307 306 306 306 305 304 304 303 304 304 304 304 304 303 304 303 303 303 303 303 303 303 302 302 302 303 303 303 303 302 302 303 304 307 310 312 314 315 316 317 318
308 308 308 309 308 311 313 315 318 319 320 321 321 322 322 320 321 320 320 320 320 320 320 319 319 318 317 317 316 316 316 316 315 313 312 311 311 312 312 311 310 309 309 309 307 306 305 305 305 304 303 303 303 303 304 303 303 303 303 303 303 303 303 303 303 303 303 303 302 302 303 303 304 304 304 304 303 304 306 309 312 315 316 317 317
308 308 309 309 309 309 309 311 314 317 319 321 321 322 322 321 322 321 320 321 320 320 320 319 319 318 318 317 316 316 317 317 317 314 312 311 311 311 312 311 310 309 309 309 308 306 305 305 305 304 303 303 303 303 303 303 303 303 302 302 302 302 302 302 303 303 303 303 303 303 302 302 303 304 305 305 305 305 305 305 307 310 313 315 317
308 308 309 308 309 309 309 309 310 313 317 319 320 321 322 322 322 321 321 321 320 320 320 319 319 318 318 317 316 316 317 318 318 315 313 312 311 311 311 311 310 309 309 310 308 305 305 305 304 303 303 303 302 302 302 302 302 302 301 301 301 301 301 301 302 302 302 302 303 303 303 302 302 303 304 304 305 306 306 306 305 306 308 311 315
309 309 309 308 309 308 309 309 309 310 313 315 317 319 320 321 322 322 322 321 321 321 320 320 320 319 319 318 317 317 317 318 318 317 315 313 311 311 311 311 310 309 310 310 307 305 305 305 304 303 302 302 302 303 303 302 302 301 301 300 300 300 300 301 301 301 302 302 302 302 302 302 302 302 302 302 303 304 306 307 307 306 306 306 310
309 309 309 308 309 308 309 309 309 310 311 312 314 315 317 319 320 322 322 322 322 322 320 320 319 319 319 319 318 318 317 318 319 318 316 314 312 311 311 311 310 310 311 309 306 304 304 304 303 303 302 303 303 303 303 303 303 301 300 300 300 300 300 300 300 301 301 300 300 301 301 302 302 302 302 303 303 304 306 307 308 308 307 305 306
308 308 308 308 309 309 309 309 309 310 311 311 313 314 316 317 319 320 321 322 322 321 321 320 319 319 319 319 319 319 319 319 319 318 317 315 313 312 312 311 310 311 311 308 305 304 304 304 303 302 303 303 304 304 304 304 303 301 300 299 299 299 299 299 299 300 300 300 299 299 300 301 302 302 302 303 303 304 305 307 307 308 309 308 306
308 308 308 308 308 308 309 309 309 309 310 310 311 312 315 316 317 319 320 321 322 322 321 320 320 319 318 318 320 320 320 320 319 319 318 316 313 312 312 311 311 311 309 306 305 305 304 303 302 303 303 304 305 305 304 303 302 300 300 299 299 298 298 297 297 298 299 299 299 299 300 300 301 301 302 303 303 303 303 304 306 306 307 308 308
308 308 307 307 308 308 308 308 308 308 308 308 308 309 311 313 316 318 319 321 322 322 322 321 320 319 318 318 319 318 318 320 320 319 318 316 313 312 312 311 311 309 307 306 305 304 303 303 303 303 304 305 305 304 303 301 300 300 299 299 298 298 297 297 296 296 297 298 298 299 299 299 299 300 300 301 302 302 302 302 303 304 305 305 306
307 307 307 307 307 307 307 307 307 307 307 307 307 307 308 310 312 315 318 320 321 322 322 321 321 320 319 319 319 318 317 318 319 320 319 315 312 312 312 311 309 308 306 306 305 304 303 303 303 304 304 305 304 302 301 300 300 300 299 299 298 298 298 297 296 295 296 297 298 299 299 298 298 298 298 299 300 300 301 301 301 302 302 303 303
306 307 307 307 307 307 307 307 307 307 307 307 307 307 307 308 309 311 314 317 319 321 322 321 322 321 321 320 319 319 318 316 318 320 318 314 312 312 311 310 308 307 306 305 304 304 303 303 304 304 304 303 302 301 300 300 300 300 299 299 298 298 298 297 296 295 296 297 298 298 298 298 298 298 298 298 298 299 299 300 301 301 301 301 301
307 307 307 307 307 307 307 307 307 307 307 307 307 307 307 307 307 308 310 312 315 318 320 321 321 321 321 320 319 319 319 317 319 320 317 313 311 311 310 309 308 306 305 304 303 303 303 303 303 303 303 302 301 300 300 300 300 299 299 298 298 297 297 296 296 295 296 297 298 298 298 298 298 298 298 298 298 298 298 298 299 300 300 300 300
306 306 306 306 307 307 307 307 307 306 306 306 306 306 306 306 306 307 309 310 312 315 318 320 320 321 321 321 321 320 318 318 320 319 315 312 311 310 309 308 306 305 304 303 303 303 303 303 302 302 301 301 300 300 300 300 299 298 298 297 296 296 296 295 295 295 295 297 298 298 298 299 299 299 298 298 298 298 298 298 298 298 298 298 299
306 306 307 307 306 307 307 307 307 307 306 306 305 305 304 305 305 306 308 310 311 313 314 317 319 320 320 320 321 320 317 318 319 316 313 312 310 309 308 306 304 303 303 303 303 303 303 303 302 302 301 301 301 300 299 298 297 296 295 295 295 295 295 295 295 295 296 297 298 298 299 299 299 299 299 298 298 298 298 298 298 298 298 297 297
305 305 306 306 306 306 306 306 306 306 306 306 305 304 304 304 304 305 306 308 310 312 313 316 318 319 319 319 320 320 318 318 316 312 312 311 310 310 308 304 303 303 303 304 304 304 304 303 302 302 301 301 299 298 296 295 295 295 295 296 296 296 296 296 296 297 298 298 299 299 299 299 299 299 298 298 297 298 298 298 299 299 299 298 298
302 303 303 303 304 304 304 304 304 304 304 304 304 304 304 303 303 304 305 306 308 310 312 315 317 319 319 319 320 320 319 317 314 312 312 311 310 309 306 304 304 304 305 305 305 304 304 303 302 301 300 298 296 294 294 294 294 294 294 295 295 296 296 296 297 297 297 298 298 298 299 298 298 298 297 297 296 296 297 297 298 298 299 299 299
302 302 302 302 302 302 302 302 302 302 302 302 303 303 304 304 303 303 304 305 306 308 311 314 316 318 319 319 319 319 318 316 314 312 311 311 310 308 305 304 305 306 306 306 305 305 304 303 301 299 297 295 293 293 293 293 293 293 293 294 294 295 295 296 296 296 297 297 297 297 298 298 298 297 296 296 295 295 295 296 296 297 298 299 299
302 302 302 302 302 302 302 302 302 302 302 302 302 303 303 303 303 303 304 305 305 307 310 314 316 317 318 319 319 318 317 315 313 311 311 311 309 305 304 305 306 306 306 306 305 305 303 301 298 296 295 294 294 293 293 292 292 293 293 293 294 294 295 295 296 296 296 296 296 296 296 296 296 296 296 295 294 294 294 294 295 295 296 297 298
301 302 302 302 303 303 303 302 302 302 302 302 302 302 302 303 303 303 304 305 306 307 308 313 316 316 317 318 318 318 316 314 312 312 312 310 306 304 305 306 306 306 306 306 304 302 300 298 296 296 296 295 295 293 292 292 292 293 293 293 293 293 294 295 295 296 296 296 296 295 295 295 295 295 295 295 294 294 294 294 294 294 294 295 296
301 301 301 301 302 303 303 303 302 301 301 301 301 301 302 302 303 304 304 305 307 308 309 312 316 316 315 316 316 316 315 313 312 312 310 307 304 305 306 306 307 307 306 303 300 298 297 297 297 297 297 296 295 293 292 292 292 293 293 292 292 292 293 294 295 295 295 295 295 295 294 294 294 294 294 294 294 293 293 293 293 293 293 294 294
301 301 301 301 302 303 303 303 302 301 301 301 301 300 301 302 303 304 304 304 306 309 310 312 315 315 315 315 315 315 314 313 312 311 308 305 304 305 306 306 306 305 302 299 298 297 298 298 297 297 297 296 294 293 292 293 293 293 293 292 291 292 293 294 294 294 295 295 295 294 294 294 294 294 294 294 293 293 293 293 293 292 292 293 293
301 301 302 302 302 302 302 301 300 300 300 300 300 300 300 301 303 304 305 304 305 308 310 312 314 314 314 315 314 314 313 312 311 308 306 304 305 306 307 305 303 301 299 298 298 298 298 298 298 298 297 295 293 292 293 293 293 293 293 292 291 292 293 293 294 294 294 294 294 294 294 294 294 293 293 293 293 293 292 292 292 291 292 292 292
301 301 302 302 302 301 300 300 300 300 300 300 301 300 301 302 304 305 305 304 305 307 310 312 314 314 314 314 314 313 312 311 308 305 304 305 307 306 304 300 299 298 298 298 298 298 298 298 298 297 295 293 293 293 293 293 293 293 292 291 291 292 292 293 293 293 293 293 293 293 293 293 293 293 292 292 292 292 291 291 291 291 291 292 292
301 302 302 301 301 300 300 300 300 301 301 301 302 302 302 303 305 305 305 306 307 308 310 312 313 313 314 314 313 312 310 308 306 304 305 305 304 301 299 298 297 298 298 298 298 298 298 297 297 296 294 293 293 293 293 293 293 293 292 291 291 292 292 292 292 292 291 292 292 292 292 292 292 291 291 291 291 291 291 291 291 292 292 292 292
301 301 301 301 301 301 301 301 301 302 302 302 303 303 304 305 306 306 306 306 307 309 310 312 313 313 313 312 311 310 308 305 305 305 304 302 300 298 298 298 297 298 298 298 298 297 297 296 296 295 293 293 293 293 293 293 293 292 291 291 291 292 292 291 291 291 291 291 291 291 291 291 291 291 290 290 291 291 291 292 292 292 292 292 292
301 301 302 302 302 301 301 301 301 302 303 303 303 304 304 305 306 306 306 307 308 309 311 312 312 312 311 310 309 307 305 304 304 304 302 299 298 298 298 298 298 298 298 297 297 296 296 295 294 293 292 292 292 293 293 292 292 291 290 291 291 291 291 291 291 290 291 291 291 291 291 291 291 291 291 291 291 291 291 292 293 293 293 292 292
302 302 302 302 302 301 301 301 302 302 303 303 304 304 304 305 306 306 306 307 308 310 311 311 310 310 309 308 307 306 304 303 302 301 299 298 299 299 298 298 298 297 297 297 296 295 295 294 293 292 292 292 292 292 292 291 290 290 290 290 291 291 291 291 291 290 291 291 291 291 291 290 290 291 291 291 291 292 293 293 293 293 293 293 292
303 303 302 302 302 302 302 302 302 303 304 304 304 304 304 305 306 306 306 307 308 310 310 310 309 308 306 305 305 304 303 302 299 299 298 298 299 299 298 298 297 297 296 295 294 293 293 292 292 292 292 292 292 292 291 290 290 290 290 290 290 291 291 291 290 290 290 290 290 290 290 290 290 291 291 292 292 293 294 294 294 294 294 293 293
303 302 302 302 302 302 302 303 303 304 304 304 304 304 304 305 306 306 307 308 309 310 309 309 308 306 305 304 303 302 300 299 298 298 299 299 298 298 297 297 296 296 295 294 293 293 293 292 292 292 292 292 292 291 291 290 290 290 290 290 291 291 291 290 290 290 290 290 289 290 289 290 290 291 292 293 294 294 295 295 296 296 296 295 295
303 302 302 302 302 303 303 304 304 304 304 304 304 304 305 306 306 306 307 308 309 309 308 307 306 304 303 302 301 299 298 298 298 299 299 299 298 297 296 294 294 294 294 294 294 294 293 293 293 292 292 292 291 291 291 291 290 290 290 290 291 291 290 290 290 289 289 289 289 289 290 290 291 292 293 294 294 295 296 296 297 297 297 296 296
302 302 302 302 303 304 304 304 304 304 304 304 304 304 305 306 306 307 307 308 308 307 305 304 303 302 300 299 299 299 299 299 299 299 299 299 298 296 294 293 293 294 294 295 294 294 293 293 292 291 291 291 291 290 290 290 290 290 290 291 291 290 290 290 289 289 289 289 289 290 290 291 291 292 293 293 294 295 296 296 297 297 297 297 296
302 302 302 303 303 303 304 304 304 304 304 304 303 304 305 305 305 306 306 305 304 303 302 302 301 300 300 299 299 299 299 299 299 299 299 299 297 295 293 294 295 295 295 295 295 294 293 293 291 290 290 291 290 290 290 290 290 290 291 291 291 290 290 289 289 289 289 289 289 290 290 291 291 291 292 293 294 294 295 296 297 297 297 297 296
302 302 303 304 303 303 303 303 303 304 304 303 303 304 304 303 303 304 304 303 303 302 301 301 300 300 300 299 299 299 299 299 299 299 299 298 296 294 293 295 296 296 295 295 295 294 294 292 291 290 290 290 290 290 290 290 291 291 291 291 290 290 290 289 288 288 289 289 289 289 290 290 291 291 292 292 293 294 295 296 297 298 298 297 297
Wind_Speed
39 39 38 36 34 32 30 28 25 23 20 18 16 14 12 11 11 11 12 14 14 12 11 11 10 9 9 7 6 6 6 4 3 1 0 3 6 8 10 11 11 10 10 11 13 13 13 13 13 14 15 15 15 15 14 14 16 18 19 17 13 13 15 18 19 18 18 20 21 21 21 20 18 17 17 17 15 15 15 16 16 15 15 16 16
36 39 38 37 36 34 32 30 28 26 23 21 19 15 14 13 12 12 13 14 13 12 12 11 9 8 8 7 7 7 7 5 4 4 3 1 2 5 8 10 11 12 12 12 12 12 11 12 13 13 14 15 15 15 15 14 16 19 20 19 17 17 17 17 18 19 19 21 20 20 22 21 22 22 20 19 18 17 17 18 18 18 18 16 16
35 40 40 39 38 36 34 32 31 28 24 22 20 17 16 15 14 14 13 13 14 13 13 11 9 9 8 7 6 6 6 5 5 5 6 5 4 1 1 5 8 10 12 13 12 10 10 11 12 13 14 14 15 15 14 14 16 18 20 20 19 19 18 16 17 19 21 21 19 18 20 20 21 24 24 21 19 19 19 19 19 19 19 17 17
36 41 42 41 40 38 36 35 33 29 27 25 23 21 19 17 16 16 14 13 14 15 14 12 10 11 9 7 6 4 4 4 5 6 7 7 7 6 4 2 2 5 8 10 10 9 9 9 10 11 11 12 13 14 13 13 13 14 16 17 17 18 18 18 18 19 21 20 19 17 17 17 18 21 22 22 20 20 20 20 19 19 18 18 18
40 43 44 43 41 40 38 37 35 32 30 28 26 25 22 18 18 17 16 15 15 15 15 14 13 12 10 9 8 5 5 4 3 6 8 8 8 8 7 7 5 2 2 4 6 6 6 8 9 10 10 9 10 10 11 11 9 8 11 13 14 15 16 17 17 19 20 20 20 18 14 14 15 17 18 19 19 20 20 19 19 19 18 18 19
41 44 45 44 42 42 40 39 37 35 33 31 29 27 22 19 19 19 18 16 16 16 16 15 14 12 10 9 8 5 5 6 3 5 6 7 8 8 8 9 9 7 5 3 2 2 4 5 6 8 8 8 8 8 8 8 8 7 8 9 10 11 11 12 12 14 17 18 20 20 18 16 13 12 14 15 17 19 19 19 20 20 20 20 20
40 41 43 44 43 43 42 41 39 38 36 33 31 27 23 21 22 21 20 18 17 17 18 17 15 13 8 6 5 4 4 5 3 4 5 6 7 7 8 8 9 9 9 8 7 7 6 5 5 5 5 6 6 6 6 6 6 6 7 8 9 9 10 10 9 9 12 14 15 15 18 22 18 13 13 14 15 17 18 18 19 20 21 22 22
42 42 43 44 44 44 43 42 41 40 37 35 33 29 25 24 23 23 22 19 18 18 19 18 16 14 10 7 7 5 5 5 3 2 3 4 5 6 6 7 8 9 10 10 10 9 9 8 6 5 4 4 4 5 5 5 5 6 6 7 8 9 10 11 10 9 9 10 11 10 12 19 22 20 18 17 15 16 17 16 16 17 19 20 21
42 44 44 44 44 44 43 42 41 40 38 36 34 31 26 25 25 24 24 22 20 19 20 20 18 14 12 10 9 8 7 7 6 3 2 2 3 4 4 5 6 7 8 9 9 9 9 9 8 7 6 4 2 1 2 3 4 5 6 7 7 8 10 11 11 11 11 10 10 10 10 13 17 18 19 18 16 17 21 21 21 21 21 22 21
41 44 44 43 42 43 43 42 41 41 40 38 35 32 28 27 27 26 25 24 22 20 20 21 20 17 15 13 11 10 10 9 7 5 4 3 3 2 3 3 4 6 6 7 7 8 7 7 7 6 6 5 4 2 0 1 2 4 5 6 8 9 10 11 12 12 14 13 12 12 11 11 13 13 15 16 16 17 21 24 25 25 26 26 25
40 43 44 42 41 42 43 42 42 41 41 40 36 33 30 29 29 28 26 25 23 23 22 22 22 20 18 15 13 11 11 10 8 6 6 5 4 4 3 3 3 4 5 5 5 5 5 5 4 4 4 3 2 1 0 2 3 4 6 7 8 10 11 12 13 14 14 15 15 15 14 12 11 11 12 13 14 16 19 22 24 24 25 27 27
38 41 41 40 40 42 42 42 42 41 41 40 38 36 32 30 30 29 28 26 25 24 24 23 23 22 20 17 14 12 11 10 8 7 7 5 5 6 5 4 3 3 4 4 4 3 3 3 2 3 3 2 1 2 3 3 4 5 7 9 10 12 13 13 14 14 15 16 16 16 16 15 13 12 12 12 13 16 18 21 24 25 26 27 27
34 37 38 38 39 40 40 40 40 40 41 41 39 38 35 32 32 31 30 28 26 25 25 26 25 24 22 19 16 14 13 11 9 8 8 7 7 8 7 5 4 4 3 3 3 3 2 1 1 2 2 2 2 3 4 5 5 6 6 7 9 12 15 17 16 16 16 16 16 17 18 18 17 16 15 14 14 15 16 18 22 23 24 27 27
24 31 34 35 35 37 37 38 37 38 39 40 40 39 38 36 34 34 32 29 27 26 26 26 26 25 23 21 18 16 15 14 12 10 9 10 10 9 8 7 6 5 4 4 3 2 1 0 2 3 4 4 4 4 5 6 7 7 8 7 8 9 12 16 18 19 18 18 18 18 19 19 20 20 19 18 17 16 16 17 19 21 22 24 25
15 22 27 30 31 32 34 34 33 34 36 39 40 39 39 38 37 36 34 32 29 27 27 27 26 26 24 21 19 17 16 15 13 11 11 11 11 11 10 9 8 7 6 5 4 2 1 2 3 4 5 4 4 5 6 7 9 10 11 10 9 8 9 12 16 18 20 20 20 20 20 20 21 21 22 22 20 19 18 17 19 20 22 23 24
6 14 21 26 30 31 32 32 31 31 34 37 39 39 40 40 39 37 36 33 31 29 28 26 26 26 25 22 20 18 17 17 15 13 12 12 12 12 11 10 9 9 8 7 5 3 3 4 5 5 6 5 5 6 7 9 10 12 12 13 12 11 9 9 12 15 18 20 20 21 21 21 22 22 22 23 23 22 22 21 20 19 20 23 24
16 5 5 15 24 29 32 33 32 33 34 34 35 36 37 38 39 39 38 35 33 31 29 27 26 27 26 23 21 20 19 18 16 14 13 13 13 13 12 12 11 11 10 9 7 6 6 6 7 8 8 7 7 8 9 11 12 13 13 14 13 12 11 10 10 12 14 17 19 20 22 23 23 23 23 23 24 24 24 24 24 22 20 22 23
29 24 18 8 4 17 28 33 34 35 35 34 34 35 36 37 39 39 38 37 34 32 30 28 27 27 26 25 23 21 20 19 17 14 14 14 15 15 14 14 13 12 11 11 9 8 8 8 9 10 10 9 9 9 11 12 13 14 15 15 15 14 13 12 12 11 12 14 17 19 21 22 23 24 25 25 24 24 24 24 24 24 23 22 21
28 28 27 23 18 7 9 21 30 34 36 36 37 38 39 39 39 39 39 37 35 33 31 29 28 26 26 26 24 23 22 21 19 15 15 16 16 16 16 16 15 14 13 12 10 9 9 10 10 11 11 10 9 10 11 13 14 15 16 17 17 16 15 14 13 13 13 13 15 17 19 21 23 24 25 26 26 26 26 25 25 24 24 23 22
25 25 24 24 23 20 15 7 12 22 31 35 36 37 40 41 41 41 40 39 37 35 33 31 29 27 26 26 26 25 25 24 21 17 17 17 17 18 17 17 16 15 14 13 11 11 11 11 12 13 12 11 9 10 11 14 15 17 18 19 19 19 18 17 16 15 15 15 16 16 18 20 22 23 24 25 26 27 28 29 28 27 26 25 24
23 23 22 21 21 20 20 18 14 10 18 28 33 35 37 40 42 42 42 42 40 38 35 33 30 28 28 27 27 27 27 26 23 20 18 18 18 18 18 18 17 16 15 14 13 12 12 13 14 14 14 12 10 10 12 15 17 19 20 21 21 21 21 21 20 19 17 17 17 18 19 20 21 23 25 25 26 27 28 30 31 31 30 28 26
22 21 19 19 19 19 18 17 16 13 9 14 22 29 34 38 40 41 42 43 42 40 37 35 33 31 30 28 27 28 28 29 26 22 20 19 19 19 19 19 18 17 15 14 14 14 13 14 15 15 15 13 11 12 14 17 19 20 21 22 22 23 23 23 23 23 22 20 19 19 20 21 22 23 25 26 27 28 28 29 30 31 33 33 30
21 19 17 16 15 15 15 14 14 13 11 10 12 18 26 32 36 39 41 43 44 43 39 37 36 35 34 31 29 29 30 30 28 24 22 21 20 19 19 19 18 17 16 15 15 14 14 15 15 15 15 13 12 13 16 18 20 22 23 23 23 23 23 24 24 25 25 24 23 21 20 21 22 24 25 26 28 28 29 29 29 29 31 34 34
19 17 15 14 13 13 14 14 14 13 11 10 10 12 17 24 30 35 39 42 44 43 41 39 36 35 37 36 33 32 32 32 29 25 23 22 20 19 19 18 18 17 17 16 16 15 15 16 15 14 13 12 13 15 17 20 22 23 24 23 23 23 24 25 25 25 26 26 26 24 22 21 22 23 24 25 26 27 28 29 30 29 28 30 33
17 16 14 13 13 14 14 13 13 12 11 10 9 11 13 18 23 29 34 39 43 43 41 41 39 36 37 39 37 36 34 33 30 26 23 22 20 19 18 18 18 18 17 17 16 16 16 16 14 13 12 12 14 16 18 21 23 24 24 23 24 24 25 26 26 26 26 26 26 26 24 22 22 22 22 23 24 24 25 27 28 29 28 27 30
16 16 14 13 13 13 12 11 11 11 11 12 12 12 13 15 18 22 28 33 38 40 40 42 43 39 39 40 39 36 35 34 30 25 23 21 20 19 18 18 18 18 18 17 16 16 16 14 12 11 12 13 15 18 20 22 23 23 23 23 24 25 25 26 26 26 26 26 25 25 24 23 22 22 22 23 23 24 24 24 25 26 26 26 27
14 14 13 13 12 12 13 13 13 13 13 13 15 15 15 15 14 16 23 29 34 37 39 43 45 43 42 43 41 35 33 34 31 26 23 21 19 18 17 18 18 18 17 17 16 15 14 12 11 11 12 15 17 19 21 22 23 23 24 25 26 26 26 26 26 27 27 27 26 25 24 24 23 23 23 23 24 24 25 25 24 24 25 25 26
14 14 14 14 14 14 15 15 16 16 16 16 16 15 15 15 15 14 17 24 31 35 38 41 45 46 46 45 43 37 33 33 32 28 24 21 20 18 18 18 18 17 17 16 15 13 12 10 11 12 14 17 19 20 21 21 22 24 26 28 29 29 29 28 28 28 27 27 26 26 26 26 25 25 25 25 25 25 26 27 27 27 27 28 28
14 14 14 15 15 16 16 17 17 17 17 17 17 17 16 15 15 14 14 16 22 31 37 40 41 43 45 43 42 39 35 34 34 30 25 22 20 19 19 19 18 17 16 15 13 11 11 11 12 14 17 18 19 19 19 21 23 26 28 30 31 32 32 31 31 30 28 27 27 27 27 27 27 26 26 26 27 27 27 29 29 29 30 31 31
12 13 13 13 14 15 16 16 17 17 18 17 17 18 17 16 15 14 14 14 16 21 30 38 41 42 43 43 44 46 41 37 35 31 26 23 21 20 19 18 17 16 14 12 12 12 12 13 14 16 18 18 18 18 20 22 24 27 30 32 33 33 33 33 33 32 31 30 29 29 29 29 29 28 28 28 28 29 29 30 31 31 30 30 31
12 12 13 13 14 15 16 17 18 18 19 18 18 18 18 17 16 16 16 16 15 16 21 29 37 41 42 43 47 49 44 37 34 30 27 25 23 22 20 18 16 15 13 13 13 14 14 15 15 16 17 17 17 19 22 25 28 30 32 33 34 35 35 35 34 34 34 33 33 33 32 32 32 31 31 31 30 31 31 32 33 33 33 32 31
13 14 15 15 16 17 18 19 20 21 22 22 22 22 20 19 17 18 18 18 18 17 17 21 29 36 39 42 44 44 38 34 34 33 31 29 26 23 21 19 18 16 15 15 15 15 15 15 15 15 15 17 19 22 25 27 29 30 31 32 33 35 36 36 36 36 36 36 36 36 36 36 35 35 34 34 33 33 33 33 34 34 35 35 34
16 17 18 19 19 20 21 22 23 24 25 25 26 26 24 22 20 20 20 20 21 20 18 20 26 32 35 38 41 39 35 35 36 34 33 30 26 23 22 20 18 17 16 16 15 15 15 14 14 14 16 18 20 22 23 23 24 26 27 29 31 32 34 35 35 36 37 37 38 39 40 40 39 38 37 36 36 35 35 35 35 35 36 36 36
18 19 20 21 22 23 24 24 25 26 27 27 28 28 28 26 24 22 22 23 23 21 19 20 24 30 33 35 39 39 37 39 39 35 32 29 25 22 20 18 17 16 16 16 15 14 14 13 14 15 17 18 18 18 18 19 22 24 26 28 30 31 33 34 35 36 37 38 38 39 41 42 41 41 39 38 37 36 36 37 38 38 37 36 36
19 20 20 22 23 24 25 25 26 27 27 27 28 28 29 30 28 25 23 23 24 22 20 20 23 28 33 36 37 36 38 40 39 35 31 27 24 22 19 17 16 16 16 15 14 14 13 13 14 15 15 14 14 16 18 21 23 25 27 29 30 32 33 34 35 35 36 37 38 39 41 42 42 42 40 38 36 36 37 39 40 41 40 38 37
21 22 22 23 23 24 25 26 26 27 27 27 27 27 29 30 30 28 24 22 24 23 21 20 22 26 32 36 38 37 38 39 37 33 29 26 22 20 18 16 17 17 16 15 13 13 13 13 14 13 13 14 16 19 21 22 25 27 30 32 33 34 35 35 36 36 36 37 37 38 40 41 42 42 40 37 36 36 38 40 41 42 42 42 41
23 24 25 26 26 25 26 26 27 28 29 29 29 29 30 30 31 31 27 23 24 24 22 20 22 25 29 35 38 38 38 38 34 30 28 23 18 16 16 16 17 17 15 14 12 11 11 12 13 13 15 18 21 22 22 24 27 30 33 36 37 38 38 38 38 38 37 38 38 38 39 40 41 40 39 38 36 36 38 40 41 43 44 45 45
26 27 28 29 29 28 28 29 30 31 31 31 32 32 32 32 31 31 30 26 25 25 24 22 23 26 29 33 35 36 36 35 31 29 26 19 14 14 16 16 16 15 13 12 10 9 10 12 13 15 18 22 24 24 24 26 29 32 36 39 40 41 41 40 40 40 39 39 39 39 39 39 40 41 39 39 38 38 40 41 42 44 45 47 46
30 29 30 30 30 31 31 32 34 34 33 32 34 35 35 34 32 31 31 30 27 26 24 23 25 27 28 31 33 33 34 34 32 30 24 16 14 16 17 15 14 12 10 9 9 9 10 12 14 16 20 23 25 25 25 28 31 34 38 41 42 43 43 42 41 41 41 41 40 40 39 39 40 41 40 41 41 40 42 43 43 44 46 48 46
32 31 30 30 30 32 34 36 37 37 36 34 35 36 37 36 33 31 32 32 29 26 24 24 27 28 27 29 31 32 34 35 33 26 19 15 17 18 15 13 11 10 8 8 8 9 11 13 15 18 21 24 25 26 27 29 32 35 38 41 43 44 44 44 43 43 43 43 42 41 41 40 40 40 39 40 41 41 42 43 43 44 47 47 44
32 31 30 30 32 35 37 38 39 39 38 36 35 35 37 36 33 31 32 32 28 24 22 24 29 29 28 29 31 33 35 35 29 21 18 19 19 17 13 10 8 7 7 7 8 9 11 13 15 19 22 23 25 26 28 30 32 35 39 41 43 44 44 44 45 44 43 43 42 42 42 41 41 41 40 39 39 39 40 42 44 45 46 46 44
31 31 31 33 36 39 41 42 41 39 38 35 32 32 34 33 32 33 32 29 25 22 20 24 30 31 31 32 34 35 35 31 26 22 21 19 16 12 9 6 4 4 5 6 7 9 12 14 16 20 22 22 23 26 28 30 33 36 39 42 43 43 42 43 44 44 43 42 42 42 42 41 41 41 41 40 40 39 39 41 43 44 44 43 42
32 33 34 36 40 43 44 44 41 38 36 32 28 29 30 30 32 33 29 25 23 20 19 25 32 34 34 35 36 35 31 28 25 21 18 16 13 10 7 4 2 2 4 6 8 10 12 15 17 19 20 21 22 25 28 30 33 37 40 42 42 42 42 41 41 42 43 43 43 43 42 42 41 41 41 41 40 39 40 41 42 43 42 41 41
34 36 37 39 42 44 42 41 39 35 32 28 26 27 28 29 31 30 25 23 20 19 21 28 33 34 36 38 37 33 27 24 21 19 17 15 13 9 6 3 1 3 5 7 8 11 13 16 18 19 20 20 22 25 27 30 34 38 40 41 42 42 42 40 40 41 43 43 44 44 43 42 41 40 39 39 38 38 39 40 41 41 41 40 41
35 37 38 40 40 38 37 38 36 33 29 25 24 25 28 30 29 27 24 22 18 18 25 31 33 36 39 39 35 29 24 22 20 19 17 14 11 7 4 2 2 3 4 6 8 11 13 15 18 19 20 21 23 25 29 31 34 37 40 42 43 44 42 40 40 41 42 42 43 43 42 41 40 38 36 36 36 36 37 38 38 38 39 40 41
36 38 38 37 34 32 33 35 34 31 27 23 22 25 28 29 27 25 24 21 18 21 29 36 38 39 38 35 31 28 26 23 21 19 15 13 10 7 3 2 3 3 3 6 8 10 12 15 17 19 21 23 24 27 30 32 34 38 41 44 45 45 42 41 41 41 41 41 41 41 40 39 38 36 35 35 35 35 34 35 34 34 35 37 39
37 38 36 32 30 31 32 33 33 30 23 20 22 24 26 26 25 24 23 20 21 27 36 41 41 38 35 32 31 29 27 23 20 17 13 11 8 5 3 3 2 1 3 5 7 10 13 15 18 20 22 24 26 28 30 32 36 39 43 45 46 44 42 41 41 41 41 41 40 39 39 38 37 35 34 33 32 31 31 31 31 31 32 34 36
38 36 32 29 30 32 31 31 30 25 20 20 21 22 23 24 25 24 22 22 28 36 42 43 41 39 37 33 29 26 24 22 18 15 13 11 6 3 3 4 4 3 4 6 9 12 14 16 18 21 23 24 26 28 30 32 36 40 44 45 44 42 41 40 40 39 39 39 38 38 37 36 34 33 31 30 29 28 28 28 28 29 29 30 32
37 33 31 31 31 31 30 28 24 20 19 20 18 16 17 18 22 25 24 27 35 42 44 42 40 38 35 30 26 24 22 19 16 14 13 10 4 4 6 6 6 6 7 10 12 14 15 16 18 20 22 24 26 28 29 32 36 40 43 42 41 39 38 37 36 36 35 36 35 34 33 32 30 29 29 28 27 27 27 28 28 27 27 28 29
35 33 32 31 29 29 28 25 19 16 18 14 9 6 6 14 23 27 30 36 43 44 41 37 33 31 30 29 25 22 20 19 17 16 12 7 4 6 8 8 7 7 10 12 13 14 16 17 19 20 20 22 25 27 30 33 38 40 40 38 37 35 34 33 32 31 30 30 29 29 28 27 27 27 27 27 26 26 26 27 26 25 24 25 26
34 32 29 28 28 27 24 19 16 16 13 8 5 2 9 21 29 33 38 43 44 41 37 33 30 30 30 27 23 22 22 20 18 14 9 5 6 8 9 8 8 10 11 12 12 14 15 17 19 19 19 21 24 27 30 35 38 39 37 35 33 31 29 28 27 25 25 25 25 25 26 26 26 26 26 26 25 25 25 25 24 23 22 23 24
Wind_Direction
198 195 196 198 200 203 204 206 208 209 208 208 207 207 212 211 202 188 180 182 186 184 180 178 170 151 140 135 119 106 107 105 100 104 259 263 262 264 266 266 263 255 248 241 233 230 230 231 225 216 216 220 221 226 227 222 219 220 225 233 241 240 239 240 247 255 241 228 231 233 234 238 242 249 253 252 255 263 268 270 270 272 272 266 257
197 195 196 198 200 202 204 206 210 211 210 210 210 207 210 210 202 193 187 184 184 181 178 175 159 135 127 128 122 112 107 95 86 83 67 58 263 260 255 257 257 252 253 252 245 235 227 230 231 220 216 220 223 227 231 226 220 223 229 236 243 245 245 243 249 258 252 243 240 236 236 238 240 244 251 252 251 256 264 269 271 271 274 275 271
197 196 198 199 201 202 205 209 212 214 214 213 210 208 211 208 198 196 194 186 179 177 178 173 151 131 125 130 140 134 114 95 86 81 73 72 69 62 242 249 247 242 241 245 247 238 225 224 228 227 225 226 228 231 237 236 228 228 232 234 237 242 245 242 245 249 249 252 249 239 237 240 241 241 245 250 249 251 256 262 269 271 273 275 275
199 199 200 200 201 203 207 210 211 212 215 214 211 211 211 206 201 199 194 186 180 178 179 173 154 143 142 154 165 163 150 121 90 82 80 75 72 70 64 45 273 246 234 232 235 230 222 220 220 225 227 227 231 235 240 243 237 236 239 241 242 245 247 246 247 248 247 250 249 239 236 240 243 242 246 252 252 251 253 257 263 267 271 272 272
202 201 201 201 204 208 211 211 211 212 215 218 218 215 210 206 204 199 194 189 185 183 182 177 167 160 160 175 191 195 183 167 106 86 81 77 77 72 67 67 62 61 216 221 224 216 204 208 215 222 225 225 226 229 234 239 240 238 241 246 249 251 252 251 252 251 249 250 246 238 231 236 246 249 253 257 254 252 255 258 259 262 266 269 272
206 205 204 205 209 211 211 210 211 215 218 220 221 216 208 208 205 197 194 192 189 189 188 184 179 174 170 180 198 205 182 177 146 101 88 80 82 75 72 73 74 80 87 98 116 133 150 174 198 211 221 225 227 230 234 241 246 244 239 241 245 245 245 251 255 252 249 250 251 247 240 240 250 257 259 261 259 255 255 259 261 262 263 265 268
208 208 209 210 212 211 212 213 215 218 219 219 219 214 208 209 206 198 196 196 195 194 193 190 187 183 178 182 206 219 186 186 173 117 104 90 88 84 80 77 77 83 86 88 91 94 104 121 148 173 196 210 220 230 237 243 250 251 249 247 248 246 241 245 254 254 248 249 254 258 253 244 244 254 260 262 266 263 256 254 259 265 265 264 265
209 209 211 213 215 215 216 218 218 218 218 218 218 214 209 208 206 201 198 199 199 199 197 195 192 190 185 193 215 223 208 209 215 156 124 104 98 95 91 88 85 86 88 91 92 92 94 98 108 126 148 179 206 225 235 244 248 252 255 254 255 254 249 249 253 255 257 258 257 265 264 249 245 252 259 258 258 264 262 252 253 264 268 270 270
211 212 213 215 218 220 222 222 221 218 217 219 219 215 210 208 206 203 200 201 202 203 202 198 197 196 194 199 212 215 212 219 226 215 170 134 120 110 107 103 97 95 95 95 95 95 94 93 93 98 105 117 139 199 246 259 259 260 259 258 259 260 257 257 258 255 257 267 270 270 271 260 254 256 262 264 262 267 271 265 262 267 269 269 272
213 215 216 218 221 223 224 223 221 218 217 218 217 213 212 209 206 205 204 204 205 207 205 200 199 201 202 205 209 211 214 220 225 223 217 206 191 163 144 128 116 114 111 106 103 100 97 94 91 93 97 100 108 117 114 284 281 278 268 264 263 264 264 264 265 263 259 262 267 268 270 270 270 267 267 271 271 272 274 272 270 271 271 269 266
212 214 216 218 220 222 222 221 219 217 215 215 215 214 213 211 209 208 208 207 208 210 208 204 203 204 206 208 211 214 216 223 225 220 221 221 218 215 197 173 155 139 132 128 120 111 103 96 90 91 92 85 84 85 354 290 287 282 274 271 266 263 263 262 264 265 264 264 263 262 263 266 273 274 273 275 276 276 279 280 279 276 277 274 267
209 211 214 215 217 219 220 220 220 217 215 215 214 214 215 215 213 212 210 210 211 211 210 208 208 208 209 211 215 219 220 227 229 222 223 225 230 235 226 205 196 182 159 147 140 134 122 105 96 93 92 83 50 18 6 351 330 313 295 282 273 266 262 260 260 260 262 263 262 260 258 257 256 260 267 273 274 275 279 283 284 283 284 279 274
208 207 210 212 215 219 220 221 222 222 220 218 216 216 216 217 218 216 214 213 213 214 212 211 211 211 212 213 216 221 225 229 231 226 224 228 236 242 239 229 222 216 195 172 162 160 159 138 85 61 53 42 33 26 15 7 356 346 333 311 290 276 268 263 261 261 261 261 260 259 257 255 253 254 260 266 269 272 277 284 287 289 290 286 282
209 207 208 211 215 219 220 221 225 227 226 222 219 219 219 218 220 220 218 216 216 216 215 213 213 214 216 216 217 221 226 230 231 227 225 230 238 245 247 243 239 235 222 205 194 184 191 263 10 16 16 11 8 4 357 357 356 353 349 340 320 294 278 269 264 262 262 262 262 260 258 256 255 255 257 261 266 272 277 285 289 289 289 288 285
211 211 210 213 216 218 219 221 225 229 230 227 223 222 221 221 221 221 220 218 217 219 218 216 215 216 218 219 219 221 226 230 230 228 227 232 240 248 251 250 251 250 243 235 228 224 256 319 351 353 352 354 351 346 345 347 351 352 352 348 339 322 297 279 270 265 262 262 263 262 261 259 257 257 258 260 263 267 272 277 283 290 291 287 283
193 217 217 218 218 218 220 222 226 230 232 230 227 224 224 224 223 224 223 221 220 221 220 219 217 218 220 221 221 222 225 228 228 227 228 231 240 250 255 258 260 259 259 258 261 273 298 320 330 331 330 331 332 336 339 342 344 346 347 345 341 334 320 299 281 272 267 264 263 262 262 261 259 260 260 261 262 263 266 269 274 285 293 291 288
70 81 219 228 225 223 222 222 226 230 232 233 232 229 229 228 226 225 225 224 223 223 223 221 219 220 223 224 224 224 227 230 229 227 228 231 238 245 251 256 257 258 262 266 272 286 302 314 318 318 319 318 323 332 337 340 340 339 340 340 337 332 326 317 302 285 274 269 266 264 264 263 262 261 260 261 261 261 262 265 268 272 280 289 293
62 61 57 45 263 237 230 227 227 228 231 234 233 231 231 232 230 228 226 226 226 225 225 224 222 223 226 227 227 228 230 234 232 229 229 231 236 241 244 248 251 254 259 262 268 281 293 303 308 309 309 309 317 330 336 337 337 334 333 332 330 327 321 314 309 302 290 278 271 267 264 264 264 263 262 261 260 261 260 260 263 265 269 275 283
53 53 54 52 45 23 258 240 237 235 234 234 233 232 231 232 233 232 231 231 229 228 226 226 226 226 229 231 232 232 235 236 233 228 228 230 234 238 241 244 246 248 251 255 262 273 282 290 295 296 295 298 310 324 331 332 331 328 325 323 321 319 315 310 304 300 296 289 280 272 267 265 265 264 263 263 261 261 260 259 259 259 261 265 269
45 43 44 44 43 39 32 355 272 255 247 241 236 234 233 233 234 234 234 234 232 231 229 227 228 229 231 235 235 236 238 238 234 230 230 230 232 236 240 241 242 244 245 248 254 262 271 278 282 285 285 286 299 317 324 326 325 323 320 319 316 313 311 308 305 301 296 291 285 279 273 269 267 266 265 264 263 262 260 259 259 258 257 259 263
42 38 35 32 31 31 30 26 14 325 273 256 247 240 237 236 235 235 236 235 235 234 232 231 230 230 231 234 236 237 239 239 235 234 233 231 232 234 237 238 239 240 243 244 247 252 261 268 273 278 278 279 291 314 322 321 322 321 320 318 315 312 310 308 306 304 300 294 286 281 278 274 271 269 268 268 267 265 263 261 258 259 258 258 261
47 40 33 24 21 23 24 23 23 15 334 285 264 254 248 244 241 238 237 237 238 238 236 234 232 232 233 235 235 237 239 239 235 235 236 233 232 234 234 235 235 237 239 241 244 249 255 261 267 272 272 275 292 313 319 319 320 320 320 318 315 312 310 308 306 304 302 299 291 283 279 277 275 271 269 268 269 269 269 266 262 259 258 257 259
62 54 47 36 26 21 22 22 20 16 8 345 307 281 268 260 253 246 242 240 240 238 238 237 236 235 236 236 237 236 238 239 235 234 237 235 233 234 235 234 234 234 236 238 242 247 251 256 262 266 267 277 298 311 315 315 317 318 317 314 311 309 307 306 305 304 303 301 297 290 282 279 278 276 272 269 268 268 268 270 268 265 261 257 257
67 61 52 43 33 23 20 20 18 14 7 354 334 315 295 279 268 259 251 245 242 240 239 239 239 239 239 237 238 238 238 239 235 234 238 239 236 236 236 235 234 234 235 237 239 242 247 254 260 264 271 287 301 307 309 310 312 314 313 309 307 306 304 303 302 302 302 302 300 297 290 282 277 275 275 273 271 269 267 268 269 269 268 263 257
59 55 47 37 31 30 25 20 18 17 10 355 337 318 302 290 280 272 262 253 247 243 242 242 241 242 241 238 237 238 239 238 235 233 237 239 238 237 236 234 232 233 236 237 238 240 246 254 260 266 280 294 299 300 302 305 308 309 307 306 306 305 304 303 301 300 300 301 300 300 298 292 286 280 276 274 274 274 271 269 269 270 271 270 263
49 48 44 37 32 29 23 17 14 11 6 359 349 334 314 296 285 278 272 265 256 248 245 244 243 243 245 241 236 237 240 239 234 232 235 237 236 236 234 231 231 233 236 238 239 242 248 254 259 270 286 292 293 295 298 302 303 302 303 304 305 305 304 303 301 299 298 297 296 297 297 297 295 291 285 280 279 280 280 277 275 273 272 273 269
35 33 29 23 19 13 8 6 0 354 349 345 342 339 333 319 304 286 272 266 261 254 249 246 243 245 249 245 237 233 238 240 236 230 232 234 232 233 231 230 232 233 237 241 242 246 249 254 263 275 283 285 288 293 297 299 300 301 305 306 305 305 304 302 301 300 297 295 291 290 289 289 289 289 288 286 283 283 285 284 282 281 278 278 276
11 9 5 2 0 355 352 349 345 342 338 333 329 328 328 324 321 310 284 266 259 253 249 247 245 245 248 247 239 232 231 236 236 229 227 228 225 226 227 227 230 233 237 241 243 246 250 255 266 274 278 282 287 291 294 297 301 306 308 308 306 305 303 301 300 298 296 293 290 288 287 286 285 283 282 281 280 279 280 280 280 280 280 280 279
358 357 353 351 347 342 339 335 332 330 326 324 323 319 318 315 314 315 306 288 268 256 251 249 248 246 246 246 245 239 230 229 229 223 219 220 218 217 219 221 226 229 232 236 239 243 249 255 263 270 276 281 286 290 296 300 303 305 305 304 304 303 301 300 298 297 294 291 289 288 287 286 285 283 280 278 275 273 273 273 274 276 277 279 279
353 351 347 344 340 335 331 325 322 322 320 319 317 315 314 311 305 299 297 298 287 270 259 253 251 250 247 245 247 244 234 225 221 215 210 210 210 209 212 217 221 223 224 228 232 238 244 252 261 269 275 281 288 294 298 299 300 301 301 301 300 299 299 298 297 296 293 290 288 288 287 286 285 284 282 280 276 272 270 270 271 271 273 275 276
348 342 337 336 333 328 324 321 318 317 318 318 314 312 310 307 300 291 288 287 284 280 272 262 257 254 249 246 244 240 233 223 214 207 205 205 204 204 209 213 214 214 216 221 227 235 243 252 262 271 279 286 293 297 298 298 299 299 300 299 298 298 297 296 296 295 293 291 290 289 288 287 287 286 285 284 281 276 272 270 269 269 268 268 269
339 333 331 328 325 322 319 316 315 313 313 315 313 310 309 306 297 286 282 283 280 276 273 268 263 258 253 249 242 234 228 221 212 207 207 206 203 205 208 208 206 206 211 218 226 237 247 259 271 280 288 292 296 298 299 301 302 303 303 301 300 298 296 295 295 294 294 294 293 292 292 290 289 289 289 288 287 283 278 273 270 268 267 265 264
328 324 322 319 316 316 314 311 311 310 309 310 310 308 306 305 299 288 282 281 281 280 277 269 260 255 255 253 246 235 224 219 216 212 208 204 203 207 207 203 201 205 213 221 229 241 255 271 283 289 292 294 297 300 303 308 311 311 311 308 304 302 299 298 296 295 295 295 294 294 294 292 291 291 290 290 289 287 284 280 275 271 267 266 264
323 318 315 312 310 308 307 307 307 306 305 304 303 302 301 300 297 292 284 279 278 280 282 274 259 253 252 251 248 240 229 221 217 212 207 204 203 204 200 197 201 210 220 227 235 250 266 281 288 291 293 297 302 306 311 316 319 320 318 314 309 305 302 299 298 296 294 293 293 292 291 290 290 289 288 289 288 287 286 283 281 279 274 270 268
323 319 315 312 310 306 305 304 302 301 301 299 298 297 295 293 293 291 284 280 278 275 277 277 265 253 245 241 239 236 226 217 211 206 204 201 196 192 190 194 206 217 225 233 245 260 275 285 288 290 294 301 308 313 316 319 323 326 326 322 318 312 307 303 300 297 295 292 291 289 288 287 286 285 286 286 286 286 285 284 283 283 282 279 275
323 320 316 313 311 307 306 304 301 299 298 297 297 297 293 289 289 290 285 278 275 271 269 272 265 253 246 240 237 232 221 209 203 202 199 193 187 184 187 198 210 219 227 238 253 268 279 284 286 291 301 311 317 319 319 321 326 330 330 328 326 321 316 312 308 304 300 296 293 290 287 286 284 284 283 283 283 282 281 282 282 282 283 283 281
317 315 313 313 310 307 306 304 302 299 298 298 297 296 294 290 286 286 284 277 272 268 263 263 261 256 251 245 240 234 218 203 197 195 189 184 183 185 193 204 214 221 231 246 260 270 276 280 286 297 310 320 323 322 322 323 326 330 331 330 329 326 322 318 315 311 307 302 298 293 290 287 285 284 283 281 280 279 278 278 279 280 281 282 281
312 310 309 309 308 307 306 304 303 300 298 299 297 295 295 291 286 285 282 276 271 267 261 257 255 254 251 246 239 228 210 196 191 185 178 174 184 197 204 212 220 229 240 252 260 266 272 281 293 303 311 318 321 322 323 322 324 327 328 328 328 326 323 321 318 314 310 306 302 297 292 288 286 284 282 279 276 275 274 274 275 276 278 278 278
310 311 310 309 309 308 305 304 303 300 298 298 296 294 292 289 286 283 278 273 269 266 262 254 251 251 248 240 229 214 198 188 184 182 178 178 193 203 209 217 226 237 247 252 258 266 276 288 298 304 310 315 319 321 322 322 322 324 324 325 326 324 323 321 318 314 311 307 304 300 295 290 287 285 283 280 277 273 270 270 271 272 273 274 276
310 311 311 311 310 308 305 303 301 299 299 297 295 292 289 286 284 279 273 269 266 266 264 255 249 248 241 228 216 202 190 185 183 183 181 183 193 201 211 222 230 237 243 249 260 271 282 293 300 304 310 315 318 320 322 322 322 321 321 322 324 324 323 321 318 315 312 309 306 303 299 296 292 289 285 282 279 275 272 270 270 268 269 270 273
308 310 311 313 311 309 306 303 301 300 300 297 293 289 284 282 280 274 269 265 265 267 264 251 244 239 228 217 208 196 187 183 181 178 176 182 194 203 209 212 215 220 233 252 269 282 292 298 302 306 310 316 319 319 320 321 320 319 319 321 323 323 323 321 318 315 313 311 309 306 303 301 298 295 291 287 283 279 275 272 270 268 268 270 272
308 311 314 314 313 311 308 305 303 302 300 297 291 283 278 277 274 270 267 264 263 264 257 244 238 230 217 207 201 192 183 175 169 169 175 183 191 191 181 173 181 209 243 272 285 293 300 301 303 306 310 316 318 318 318 319 319 317 318 320 322 323 323 320 316 314 312 311 309 307 304 302 300 297 294 291 287 283 279 274 271 270 271 272 273
310 314 316 316 314 311 308 306 305 302 298 294 285 275 271 271 268 268 267 263 260 259 249 237 232 224 209 196 188 182 173 163 161 169 177 175 164 150 140 134 148 237 271 286 294 299 304 304 304 306 310 314 316 316 316 318 318 317 318 320 322 323 323 320 315 311 310 309 308 306 304 302 300 297 294 291 288 284 280 275 273 272 272 271 271
311 313 315 315 313 309 306 305 304 301 296 291 282 273 271 270 268 268 268 262 258 254 241 230 224 213 196 181 174 169 161 155 161 172 171 158 141 125 120 134 193 263 273 284 299 304 305 306 306 308 312 316 317 317 317 317 317 318 320 322 323 323 322 319 313 309 308 307 306 304 303 301 299 297 294 290 287 283 279 276 275 273 271 269 267
309 311 313 314 310 306 303 302 301 299 295 291 283 277 275 273 271 269 266 261 258 248 231 216 203 191 180 172 167 162 157 155 158 159 154 147 145 139 131 160 225 245 266 292 308 310 309 312 314 315 318 321 321 319 318 319 319 321 322 324 325 323 320 317 312 309 307 305 304 303 302 302 301 299 295 292 289 285 282 280 278 274 271 267 264
307 310 312 311 306 302 300 299 299 299 295 290 285 281 279 278 275 268 261 256 249 233 216 202 188 177 169 163 158 155 154 152 148 143 137 136 144 153 166 202 215 234 294 320 323 323 324 324 323 322 323 323 321 319 319 320 322 323 324 324 323 321 318 315 312 310 309 307 305 305 304 304 304 302 300 297 294 292 289 285 281 276 270 265 261
307 310 310 306 302 301 299 298 299 298 294 292 289 280 273 272 270 261 252 245 233 213 198 189 181 168 158 156 155 150 148 147 144 143 146 148 146 147 157 165 174 245 339 350 350 349 345 336 329 325 323 321 320 319 320 322 324 324 324 323 321 319 317 315 314 312 311 309 307 306 305 305 305 304 302 299 297 295 292 288 284 279 273 268 263
307 308 306 302 301 299 298 299 297 292 291 297 293 277 265 263 258 250 241 229 215 198 184 175 166 156 152 154 151 143 140 141 140 144 155 163 160 125 103 101 90 80 54 29 16 6 355 341 330 326 323 321 320 320 322 325 326 325 323 321 319 318 316 315 314 312 311 308 306 305 305 304 304 304 303 302 302 300 298 295 292 288 281 275 270
305 305 303 301 299 297 297 297 292 288 295 300 295 282 270 252 235 228 219 202 188 177 165 157 152 148 148 146 141 138 142 144 144 150 159 165 157 98 95 98 91 76 49 31 20 9 358 345 335 331 327 322 320 322 325 327 326 323 321 319 317 316 315 314 313 311 309 306 304 304 305 305 307 308 308 308 308 307 305 303 300 295 288 281 275
303 304 303 300 297 295 294 289 286 298 306 299 288 284 239 186 179 182 178 166 157 150 143 140 141 142 142 140 138 142 148 152 158 164 167 162 119 97 102 101 85 58 39 28 15 2 354 346 339 335 331 325 323 326 329 328 325 322 320 318 315 314 314 313 312 311 308 305 304 306 308 310 313 313 313 313 313 311 309 307 304 299 293 287 279
302 302 301 299 295 292 287 281 291 309 304 265 241 220 160 152 147 146 145 143 140 137 136 137 140 143 143 142 142 148 153 158 166 172 167 137 108 108 110 100 74 51 39 27 9 356 350 344 338 337 336 333 331 331 330 328 325 322 321 318 316 316 316 315 315 315 314 313 314 316 317 317 317 316 315 315 315 312 309 307 306 302 297 292 285